This is the latest recevied weather packets stored in our database for station/object YO8SDE-8. If no packets are shown the sender has not sent any weather packets the latest 10 day(s).
| Time | Temp. | Humidity | Pressure | Rain* | Wind** | Luminosity | Snow |
|---|---|---|---|---|---|---|---|
| 1777209337 | 15° C | 27% | 1001.3 hPa | 0 mm | - | - | - |
| 1777209038 | 15° C | 27% | 1001.3 hPa | 0 mm | - | - | - |
| 1777208737 | 15° C | 28% | 1001.2 hPa | 0 mm | - | - | - |
| 1777208437 | 15.56° C | 28% | 1001.3 hPa | 0 mm | - | - | - |
| 1777208138 | 15° C | 28% | 1001.1 hPa | 0 mm | - | - | - |
| 1777207837 | 15° C | 27% | 1001 hPa | 0 mm | - | - | - |
| 1777207538 | 15° C | 28% | 1001.2 hPa | 0 mm | - | - | - |
| 1777207238 | 13.89° C | 29% | 1001.2 hPa | 0 mm | - | - | - |
| 1777206938 | 13.33° C | 31% | 1001.2 hPa | 0 mm | - | - | - |
| 1777206638 | 12.78° C | 33% | 1001.3 hPa | 0 mm | - | - | - |
| 1777206338 | 12.78° C | 35% | 1001.1 hPa | 0 mm | - | - | - |
| 1777206038 | 13.33° C | 31% | 1000.9 hPa | 0 mm | - | - | - |
| 1777205738 | 13.89° C | 35% | 1000.9 hPa | 0 mm | - | - | - |
| 1777205438 | 12.78° C | 35% | 1000.9 hPa | 0 mm | - | - | - |
| 1777205137 | 12.78° C | 35% | 1000.8 hPa | 0 mm | - | - | - |
| 1777204838 | 12.78° C | 36% | 1000.7 hPa | 0 mm | - | - | - |
| 1777204538 | 12.78° C | 36% | 1000.7 hPa | 0 mm | - | - | - |
| 1777204238 | 12.78° C | 38% | 1000.8 hPa | 0 mm | - | - | - |
| 1777203938 | 12.22° C | 38% | 1000.7 hPa | 0 mm | - | - | - |
| 1777203638 | 11.67° C | 37% | 1000.7 hPa | 0 mm | - | - | - |
| 1777203338 | 11.67° C | 38% | 1000.7 hPa | 0 mm | - | - | - |
| 1777203038 | 11.67° C | 40% | 1000.6 hPa | 0 mm | - | - | - |
| 1777202738 | 11.67° C | 41% | 1000.5 hPa | 1.02 mm | - | - | - |
| 1777202438 | 11.67° C | 40% | 1000.4 hPa | 1.02 mm | - | - | - |
| 1777202138 | 11.67° C | 44% | 1000.2 hPa | 1.02 mm | - | - | - |
* Rain latest hour (hover to see other rain measurements)
** Current wind speed in m/s (hover to see current wind gust speed)